Temp
21 22 23 22 23 23 24 23 23 22 22 22 22 22 22 23 23 23 23 23 23 23 22 22 22 22 22 22 22 21 21 21 21 21 21 21 20 20 20 20 19 19 19 19 19 18 18 18 18 18 18 18 18 18 17 18 19 19 18 18 18 18 18 18 18 18 18 18 18 18 17 17 18 17 17 17 17 17 17 17 17 17 17 17 16
21 22 22 22 22 23 23 23 22 22 22 21 22 22 22 22 23 23 22 22 23 22 22 22 21 22 22 22 22 21 21 21 21 21 20 20 20 20 20 19 19 19 19 19 18 18 18 18 18 18 18 18 18 18 18 18 19 18 18 17 17 18 18 18 17 17 17 17 17 17 17 17 17 17 17 17 17 17 17 17 17 17 16 16 16
22 22 22 22 22 23 23 22 22 21 21 21 22 22 22 22 22 22 22 22 22 22 22 22 21 21 21 21 21 21 21 21 21 20 20 20 20 20 19 19 19 19 19 18 18 18 18 18 18 18 18 18 18 18 18 18 18 18 18 17 17 18 18 18 18 17 17 18 18 17 17 17 17 17 17 17 17 17 17 17 16 16 16 16 16
22 22 22 22 23 23 22 22 21 21 21 21 21 22 22 22 22 22 22 22 22 22 22 22 21 21 21 21 21 21 21 21 21 20 20 20 20 20 19 19 19 19 19 18 18 18 18 18 18 18 18 18 18 18 18 18 18 18 17 17 17 18 18 18 18 18 18 18 18 17 17 17 17 17 17 17 17 17 17 16 16 16 16 16 16
23 22 21 21 22 22 22 21 21 21 21 21 21 21 22 22 22 22 22 22 22 22 22 22 21 21 20 21 21 21 21 21 21 20 20 20 20 20 19 19 19 19 19 18 18 18 18 18 18 18 18 18 18 18 17 17 18 17 17 17 17 17 17 17 17 18 18 18 18 18 17 17 17 17 17 17 17 17 16 16 16 16 16 16 16
23 22 22 21 21 22 21 21 21 21 21 21 21 21 21 22 22 22 22 22 22 22 22 22 21 20 20 20 20 21 21 21 20 20 20 20 20 20 20 19 19 19 19 18 18 19 18 18 18 18 18 18 18 18 17 17 18 18 17 17 17 17 17 17 17 17 17 18 18 18 18 17 17 17 17 17 17 17 17 16 16 16 16 16 16
23 23 22 22 21 21 21 21 21 21 20 20 21 21 21 22 22 21 21 21 21 21 21 21 21 20 20 20 20 20 20 20 20 20 20 20 20 20 19 19 19 19 19 19 19 19 19 18 18 18 18 18 18 18 18 18 18 18 17 17 17 17 17 17 17 17 17 18 18 18 18 18 18 17 17 17 17 17 17 16 16 16 16 16 16
22 23 23 22 21 20 20 20 20 20 20 20 20 21 21 22 22 21 21 21 21 21 21 21 21 20 20 20 20 20 20 20 20 20 20 20 20 19 19 19 19 19 19 19 19 19 18 18 18 18 18 19 18 18 18 18 18 18 17 17 17 17 17 17 17 17 17 18 18 18 19 19 18 17 17 17 17 17 17 16 16 16 16 16 16
21 22 22 21 20 20 20 20 20 20 20 20 20 21 21 21 21 21 21 21 21 21 21 20 20 20 20 20 20 20 20 20 20 20 20 20 19 19 19 19 19 19 19 19 19 18 18 18 18 18 18 19 19 18 18 18 18 18 18 17 17 17 17 17 17 17 17 18 18 19 19 19 18 18 17 17 16 16 16 16 16 16 16 16 16
19 20 20 20 20 19 20 20 20 20 20 20 20 21 21 21 21 20 20 20 20 20 20 20 20 19 19 19 19 19 20 20 20 20 20 19 19 19 19 19 19 19 19 19 19 18 18 18 18 18 18 18 19 19 19 19 18 18 18 18 18 18 18 18 17 17 17 17 18 19 19 18 18 18 17 16 16 16 16 16 16 16 16 16 16
20 20 20 20 20 19 20 20 20 20 20 20 20 20 20 21 20 20 20 20 20 20 20 19 19 19 19 19 19 19 19 19 20 20 20 19 19 19 19 19 19 19 19 19 18 18 18 18 18 18 18 18 19 19 19 19 19 18 19 18 18 18 18 18 18 18 18 18 18 19 18 18 18 18 17 16 16 16 16 16 16 16 16 16 16
20 20 20 20 19 19 19 19 20 20 20 20 20 20 20 20 20 20 19 19 20 20 19 19 19 19 19 19 19 19 20 20 20 20 20 20 20 20 20 19 19 19 19 18 18 18 18 18 18 18 18 18 19 20 19 19 19 19 19 19 19 19 18 18 18 18 18 18 18 19 19 18 18 17 17 16 16 16 16 16 16 16 16 16 16
20 19 19 19 19 19 19 20 20 20 20 20 19 19 19 19 19 19 20 19 19 19 19 19 19 19 19 19 19 20 20 20 20 20 19 20 20 20 19 19 19 19 18 18 18 18 18 18 18 18 18 18 19 20 20 19 19 19 19 19 19 19 18 18 18 18 18 18 19 19 19 18 18 18 17 16 16 16 16 16 16 16 16 16 16
20 20 19 19 20 19 19 20 20 20 19 19 19 19 19 19 20 20 20 19 19 19 19 19 19 19 19 19 19 19 19 19 19 19 19 19 19 19 19 19 19 19 18 18 18 18 18 18 18 18 18 18 19 20 20 19 19 19 19 19 19 18 18 18 18 18 18 19 19 19 19 19 19 18 17 16 16 16 16 16 16 16 16 16 16
21 21 20 19 19 19 19 20 20 20 20 19 19 19 19 20 20 20 20 19 19 19 19 19 19 19 19 19 19 19 19 19 19 19 19 19 19 19 19 19 19 18 18 18 18 18 18 18 18 18 18 18 18 19 20 19 19 19 19 19 18 18 17 18 18 18 19 19 19 19 19 19 19 18 17 16 16 16 16 16 16 16 16 16 16
21 21 20 19 19 18 19 20 21 21 20 20 20 19 20 20 20 20 20 19 19 20 20 20 20 20 19 19 19 19 19 19 19 19 19 19 19 19 19 19 19 18 18 18 18 18 18 18 18 18 18 18 18 18 19 20 19 19 19 19 19 18 17 18 18 18 19 19 19 19 20 19 19 18 17 16 16 16 16 16 16 16 16 16 15
20 20 20 19 18 18 18 19 20 20 20 20 20 20 20 20 20 20 20 19 20 20 20 20 20 20 19 19 19 19 19 19 19 19 19 19 19 19 19 19 19 19 19 19 18 18 18 18 18 18 18 18 18 18 19 19 19 19 19 19 19 18 18 18 18 18 19 19 19 19 20 20 19 19 18 16 16 16 16 16 16 16 16 16 15
20 20 19 19 18 18 19 19 19 20 20 20 20 20 20 20 20 20 19 19 20 20 20 20 20 20 19 19 19 19 19 19 19 19 19 19 19 19 19 19 19 19 19 19 18 18 18 18 18 18 18 18 18 18 19 19 19 19 19 19 18 18 18 18 18 19 19 19 19 20 20 20 19 19 18 17 16 16 16 16 16 16 16 16 15
19 19 19 18 18 19 19 19 20 20 20 20 20 20 20 20 20 20 20 20 20 20 20 20 20 20 19 19 19 19 19 19 19 19 19 19 18 18 18 18 19 19 19 18 18 18 18 18 18 18 18 18 18 18 18 19 19 19 19 19 19 18 18 19 19 19 19 19 20 20 20 20 19 19 18 17 16 16 16 16 16 16 16 15 15
18 18 19 18 19 19 19 20 20 20 20 20 20 20 20 20 20 20 20 20 20 20 20 20 20 19 19 19 19 19 19 19 19 18 18 18 18 18 18 18 18 18 18 18 18 18 18 18 18 18 18 18 18 18 18 19 19 19 19 19 19 18 18 18 19 19 19 19 19 20 20 19 19 19 18 17 16 16 16 15 15 15 16 15 15
18 18 19 19 19 20 20 20 20 20 20 20 20 19 19 20 20 20 20 20 20 20 20 20 19 19 19 19 19 19 19 19 18 18 18 18 18 18 18 18 18 18 18 18 18 18 18 18 18 18 18 18 18 18 19 19 19 19 19 19 19 19 18 18 18 19 19 19 19 19 20 19 19 18 18 17 16 16 15 15 15 15 15 15 15
18 18 19 20 20 20 20 20 20 20 20 20 20 20 20 20 20 20 20 20 20 20 20 19 19 19 19 19 19 19 19 18 18 18 18 18 18 18 18 18 18 18 18 18 18 18 18 18 18 18 18 18 18 18 19 19 19 19 19 19 19 19 18 18 18 19 19 19 19 19 19 19 18 18 17 16 16 15 15 15 15 15 15 15 15
19 19 19 20 20 20 20 20 20 20 20 20 20 20 20 20 20 20 20 20 20 19 19 19 19 19 18 19 19 19 18 18 18 18 18 18 18 18 18 18 18 18 18 18 18 17 18 18 18 18 18 18 18 18 18 19 19 19 19 19 19 19 19 19 19 19 19 19 19 19 19 19 18 17 17 16 16 15 15 15 15 15 15 15 15
19 19 19 19 20 20 20 20 20 20 20 20 20 20 20 20 20 20 20 20 19 19 19 19 19 18 18 19 18 18 18 18 18 18 18 18 18 18 18 18 18 18 18 17 17 17 18 18 18 18 18 18 18 18 18 19 19 19 20 19 19 19 19 19 19 19 19 19 19 19 19 18 17 17 17 16 16 15 15 15 15 15 15 15 15
19 19 19 19 20 20 20 20 20 20 20 20 20 20 20 20 19 20 20 20 19 19 19 19 19 19 18 18 18 18 18 18 18 18 18 18 18 18 18 18 18 17 17 17 17 17 17 18 18 18 18 18 18 18 18 19 19 19 20 19 19 19 19 19 19 19 19 19 19 19 18 18 18 17 16 16 15 15 15 15 15 15 15 15 15
19 19 19 19 19 20 20 20 20 20 20 20 20 20 19 19 19 19 20 20 19 19 19 19 19 19 18 18 17 18 18 18 18 18 18 18 18 17 18 18 18 17 18 18 17 17 17 18 18 18 18 18 18 18 19 19 19 19 19 19 19 19 19 19 19 19 19 19 19 19 18 18 18 17 16 16 15 15 15 15 15 15 14 14 14
19 19 19 19 19 19 19 19 19 19 19 20 19 19 19 19 19 19 20 20 19 19 19 19 19 19 18 18 17 17 18 18 18 18 18 18 17 17 17 18 17 18 18 18 18 18 17 18 18 18 18 18 18 18 19 19 19 19 19 19 19 19 19 19 19 19 19 19 19 19 18 18 18 17 17 16 15 15 15 15 15 15 14 14 14
19 19 19 19 19 19 19 19 19 19 19 19 19 19 19 19 19 19 20 20 20 19 19 19 19 18 18 18 18 17 17 18 18 18 18 18 17 17 17 17 17 18 18 18 18 18 17 17 18 18 18 18 18 18 19 19 19 19 19 19 19 19 19 19 19 19 19 19 19 19 19 18 18 18 17 16 15 15 15 15 15 15 14 14 14
19 19 19 19 19 19 19 19 19 19 19 19 19 19 18 18 19 19 19 19 19 19 18 18 18 18 18 18 18 17 17 17 17 18 18 17 17 17 17 17 18 18 18 18 17 18 17 17 18 18 18 18 18 19 19 19 19 19 19 19 19 19 19 19 19 19 19 19 19 19 19 19 19 18 18 17 15 15 15 15 15 15 14 14 14
19 19 19 19 20 20 19 19 19 19 19 19 19 18 18 18 19 19 19 19 19 19 18 18 18 18 18 18 18 17 17 17 17 17 17 17 17 17 18 18 18 18 17 17 17 17 17 18 18 18 18 18 18 18 18 19 19 19 19 19 19 20 19 19 19 19 19 19 19 19 19 19 19 19 18 17 16 15 15 15 15 15 14 14 14
19 20 19 19 19 20 19 20 20 19 19 19 19 19 18 19 19 18 19 19 19 18 18 18 18 18 18 18 17 17 17 17 17 17 17 17 17 17 18 18 18 17 17 17 17 17 17 17 18 18 18 18 18 18 18 19 19 19 19 20 20 20 20 19 19 19 19 19 19 19 19 19 19 19 19 18 17 16 15 15 15 15 14 14 14
20 22 21 19 19 20 20 20 20 20 20 20 19 19 19 19 19 19 19 19 18 18 18 18 18 18 18 18 17 17 17 17 17 17 17 17 17 17 18 18 17 17 17 17 17 17 17 17 17 18 18 18 18 18 18 19 19 19 20 20 20 20 19 19 19 19 19 19 19 19 19 19 18 18 18 18 18 17 16 16 15 15 15 15 15
21 22 22 20 19 20 20 20 20 20 20 20 19 19 19 19 19 19 19 18 18 18 18 18 18 18 18 17 17 17 16 16 16 17 17 17 17 17 17 17 17 17 17 17 17 17 17 17 17 18 18 18 18 18 19 19 19 19 19 20 20 19 19 19 19 19 19 19 19 19 19 19 18 18 18 18 18 17 17 16 16 15 15 15 15
21 21 21 20 20 20 20 20 20 20 20 20 20 19 19 19 19 19 19 19 19 18 18 18 18 17 17 17 17 17 17 16 16 16 16 17 17 17 16 16 17 17 17 17 17 17 17 17 17 18 18 18 18 19 19 19 19 19 19 19 19 19 19 19 19 19 19 19 19 19 19 19 19 18 18 18 18 18 17 17 16 16 15 15 15
21 21 21 20 21 21 20 20 20 20 20 20 20 20 20 20 19 19 19 19 19 18 18 18 18 17 17 17 17 17 17 16 16 16 17 17 17 16 16 17 17 17 17 17 17 17 17 17 17 17 18 18 18 18 18 19 19 19 19 19 19 19 19 19 19 19 19 19 19 19 19 19 19 18 18 18 18 18 18 17 17 16 16 15 15
21 21 21 21 21 21 21 20 20 20 20 20 20 20 20 20 20 19 19 19 19 18 18 17 17 17 17 17 17 17 17 17 17 17 17 17 17 17 17 17 17 17 17 17 17 17 17 17 17 17 17 18 18 18 18 18 19 19 19 19 19 19 19 19 19 19 19 19 19 19 19 19 18 18 18 18 18 18 18 18 17 17 17 16 15
22 21 20 21 21 21 21 21 20 21 21 21 20 20 20 20 20 19 19 19 18 18 18 17 17 17 17 17 17 17 17 17 17 17 18 18 17 17 17 17 17 16 16 17 17 16 16 17 17 17 17 18 18 18 18 18 18 18 18 18 19 19 19 19 18 19 19 19 19 18 19 19 18 18 18 18 18 18 18 18 17 17 17 17 16
22 21 21 21 21 21 21 21 21 21 21 20 20 20 20 19 19 19 19 19 18 18 18 17 17 17 17 17 17 17 17 17 17 17 17 17 17 17 17 16 16 16 16 16 16 15 15 17 17 17 18 18 18 18 18 18 18 18 18 18 18 18 18 18 18 18 18 19 18 18 18 18 18 18 18 18 18 18 18 18 17 17 17 17 17
21 21 21 21 21 21 21 21 21 21 21 20 20 20 20 19 19 19 18 18 18 18 18 17 17 17 18 18 17 17 17 17 17 17 17 17 17 17 16 16 16 16 16 16 15 15 16 17 17 17 17 18 18 18 18 17 17 17 18 18 18 18 18 18 17 17 17 18 18 18 18 18 18 18 18 18 18 18 17 17 17 17 17 17 17
21 21 21 21 21 21 21 21 20 20 20 20 20 20 20 20 19 19 18 18 18 18 17 17 17 17 17 17 17 17 17 17 17 17 17 17 17 16 16 16 16 16 16 16 15 15 16 16 16 16 17 17 17 17 18 18 17 17 17 18 18 18 18 17 17 17 17 17 18 18 18 18 18 18 18 18 18 18 18 17 17 17 17 17 17
20 21 21 21 21 21 20 20 20 20 20 20 20 20 20 19 19 19 18 18 17 17 17 17 17 17 17 17 17 17 17 17 17 17 17 17 17 17 17 16 16 16 16 15 16 16 16 16 16 16 16 17 17 17 17 17 17 17 17 17 17 17 17 18 17 17 17 17 17 17 17 18 18 18 18 18 18 18 18 18 18 18 18 18 18
20 21 21 21 20 20 20 20 20 20 20 20 20 20 20 19 19 19 18 18 18 18 17 17 17 17 17 18 17 17 17 17 17 17 17 17 17 17 17 17 16 16 15 15 15 15 16 16 16 16 16 16 17 17 17 17 17 17 16 17 17 17 18 18 18 17 17 17 17 17 17 17 18 18 18 18 18 18 18 18 18 18 18 18 18
20 20 21 20 20 20 20 20 20 20 20 20 20 20 20 19 19 19 18 18 18 18 18 17 17 17 17 17 17 17 17 17 17 17 17 17 17 17 17 17 16 16 16 16 16 15 15 16 15 16 16 16 16 16 16 16 16 16 16 16 16 17 17 17 17 17 17 17 17 17 17 17 17 17 17 17 18 18 18 18 18 18 18 18 18
20 20 20 20 20 20 20 20 20 20 20 20 20 20 20 19 19 18 18 18 18 18 17 17 17 17 17 17 17 17 17 17 17 17 17 17 17 17 17 17 16 16 16 16 16 15 15 15 15 15 15 15 15 15 15 15 16 16 16 16 15 16 17 16 16 17 17 17 17 17 17 17 16 16 17 17 17 17 18 18 18 18 18 18 18
19 20 20 20 20 19 20 20 20 20 20 20 20 20 20 19 19 18 18 18 18 17 17 17 17 17 17 17 17 17 17 17 17 17 17 17 17 17 17 16 16 16 16 16 16 15 15 15 15 15 16 15 15 15 15 15 15 16 15 15 15 16 17 16 15 16 16 16 17 17 17 17 16 16 17 17 17 17 17 17 17 18 18 18 18
19 20 20 20 20 19 19 20 20 20 20 20 20 20 20 19 19 18 18 17 17 17 17 16 17 17 17 17 17 17 17 17 17 17 17 17 17 17 17 16 16 16 16 16 16 15 15 15 15 15 15 15 15 15 14 15 15 15 15 15 15 15 16 15 16 16 16 16 17 17 17 17 17 17 17 17 17 17 17 17 17 17 17 18 18
19 20 20 20 20 19 19 20 19 19 20 20 20 20 20 19 19 18 18 17 17 17 16 16 16 16 16 16 16 16 17 16 16 16 17 17 17 17 17 17 16 16 16 16 16 15 15 15 15 15 15 15 15 14 14 14 14 14 15 15 15 15 15 15 16 16 16 16 16 17 17 17 17 17 17 17 17 17 17 17 17 17 17 18 18
19 20 20 20 20 20 19 20 19 19 20 20 20 20 20 19 19 19 18 17 17 17 16 16 16 16 16 16 16 16 16 16 16 16 17 17 16 16 16 16 16 16 16 16 16 15 15 15 15 15 15 15 15 14 14 14 14 14 14 16 16 15 15 15 16 16 16 16 16 16 17 17 17 17 17 17 17 17 17 18 17 17 18 18 18
20 20 20 20 20 20 20 20 19 19 20 20 20 20 20 19 19 18 18 17 17 17 17 16 16 16 16 16 16 16 16 16 16 16 16 16 16 16 16 16 16 16 15 15 15 15 15 15 15 15 15 14 14 14 14 14 14 14 14 15 15 15 15 16 16 16 16 16 16 15 16 16 17 18 17 17 18 17 17 17 17 17 18 18 18
20 20 20 20 20 20 20 20 19 19 20 20 20 20 20 19 19 19 18 17 17 17 17 16 16 16 16 16 16 16 16 16 16 16 16 16 16 16 16 16 16 16 15 15 15 15 15 15 15 15 15 15 15 15 14 15 15 15 15 15 14 14 15 15 15 16 15 15 15 15 14 15 16 17 18 18 17 17 17 17 17 17 17 17 17
19 19 19 20 20 20 20 20 19 19 19 19 20 20 19 19 19 19 18 17 17 17 17 16 16 16 16 16 16 16 16 16 16 16 16 16 16 16 16 16 15 16 16 15 15 15 15 15 15 15 15 15 15 15 15 15 15 15 15 15 14 14 14 14 15 15 15 15 15 14 14 15 16 16 17 17 17 17 17 17 16 16 16 17 17
Height
776 776 778 779 780 780 780 780 780 780 781 782 784 787 788 790 791 792 794 795 796 797 798 799 800 801 802 803 804 805 806 806 807 808 808 809 810 811 812 813 813 814 814 815 815 815 816 816 817 817 818 818 819 819 819 819 819 820 820 821 821 822 822 822 822 822 822 822 823 822 823 823 823 822 822 822 822 822 822 822 822 822 822 822 822
775 777 779 780 781 781 781 781 782 781 782 783 785 787 789 791 792 794 795 796 797 798 799 799 800 802 803 804 805 806 807 807 808 809 809 810 811 812 813 813 814 815 815 816 816 816 817 817 818 818 819 819 819 820 820 820 820 821 822 822 823 823 823 823 823 823 823 823 823 823 823 823 823 823 823 824 824 824 824 824 823 823 823 823 823
774 778 780 781 782 782 782 782 782 782 783 784 787 788 790 792 793 795 796 797 798 799 799 800 801 802 804 805 806 807 808 808 809 810 810 811 812 813 813 814 815 815 816 817 817 817 817 818 818 819 819 820 820 821 821 821 822 822 823 824 824 824 824 824 824 824 824 824 824 824 824 824 824 824 824 825 825 825 825 825 825 824 824 824 824
774 778 780 782 783 783 783 783 784 783 784 785 787 789 791 793 794 796 797 798 799 800 800 801 802 803 805 805 807 807 808 809 810 810 811 812 812 813 814 815 815 816 816 817 817 818 818 819 819 820 820 821 821 821 822 822 823 823 824 825 825 825 826 826 826 825 826 825 825 825 825 825 825 825 825 825 826 826 826 826 826 826 825 825 825
775 778 780 782 783 784 784 784 784 784 785 786 788 790 792 794 796 797 798 800 800 801 801 802 803 804 805 806 807 808 809 810 810 811 812 813 813 814 814 815 816 816 817 818 818 819 819 820 820 820 821 821 822 822 823 823 824 824 825 826 826 826 827 827 827 827 827 827 827 826 826 826 826 827 826 826 827 827 827 827 827 827 827 826 826
775 778 781 782 783 784 784 785 784 785 786 787 789 791 793 795 797 798 800 801 801 802 802 803 803 804 806 807 808 808 810 810 811 812 812 813 814 814 815 815 816 817 818 819 819 820 820 820 820 821 821 822 822 823 823 824 825 825 826 827 827 827 828 828 828 828 829 828 828 828 828 827 827 828 828 827 827 828 828 828 828 828 828 828 827
776 778 781 782 783 784 785 785 785 785 786 788 789 791 793 795 797 799 801 802 803 803 803 804 804 805 806 807 808 809 810 810 811 812 813 814 814 815 815 816 817 818 819 819 820 820 820 821 821 821 822 822 823 823 824 824 825 826 827 827 828 828 829 829 829 829 830 830 829 829 829 828 828 829 829 829 828 829 829 829 829 829 829 829 828
778 779 781 782 784 785 786 786 786 787 788 789 790 792 794 795 797 799 801 803 804 804 805 805 805 806 807 808 809 810 810 811 811 812 813 814 815 815 816 817 818 818 819 820 820 821 821 821 822 822 822 823 823 824 824 825 826 827 828 828 829 829 829 830 830 830 831 831 830 830 830 830 830 830 830 830 829 830 830 830 830 830 830 830 830
784 782 783 785 786 788 789 789 789 789 790 791 792 794 795 796 798 800 802 803 804 805 806 806 806 807 807 809 809 810 811 811 812 812 814 814 815 816 816 817 818 819 819 820 820 821 821 821 822 822 823 823 824 824 825 826 826 827 828 829 829 830 830 830 830 831 832 831 831 831 831 831 831 830 831 831 830 830 831 831 831 831 831 831 831
788 788 788 788 789 791 791 791 791 791 793 794 795 796 796 798 799 801 803 804 805 806 806 807 807 807 808 809 810 811 812 812 813 813 814 815 816 816 817 818 818 819 819 820 821 821 821 822 822 822 823 824 824 825 825 826 827 828 828 829 830 830 830 830 830 831 831 832 832 832 832 832 831 831 832 832 831 831 831 832 832 832 832 832 832
787 791 792 791 791 792 792 792 792 792 794 795 796 797 798 799 801 802 804 805 806 807 807 808 808 808 809 810 811 812 812 813 814 814 815 816 816 816 817 818 818 819 820 820 821 822 822 822 822 823 823 824 824 825 825 826 827 828 829 830 830 831 831 830 830 830 831 832 833 833 832 832 832 832 832 832 832 832 832 833 833 833 833 833 833
786 791 793 794 793 793 793 793 792 793 795 796 797 798 800 801 802 803 805 806 807 808 808 808 809 809 810 810 811 812 813 814 815 815 816 816 816 817 817 818 818 819 820 821 822 822 822 823 823 823 824 824 825 825 826 827 828 828 829 830 830 831 831 830 830 830 831 832 833 833 833 833 833 833 833 833 833 833 833 833 834 834 834 834 834
787 793 797 797 796 795 794 793 793 794 795 797 798 799 801 801 803 804 805 807 807 808 809 809 809 810 810 811 812 812 814 814 816 816 817 817 817 817 818 818 819 820 821 821 822 823 823 823 823 824 824 824 825 825 826 826 827 828 829 830 831 831 831 831 831 831 832 832 833 833 833 833 833 833 833 834 834 834 834 834 835 835 835 835 835
785 792 799 801 799 798 795 794 794 794 796 797 799 800 801 802 803 804 806 807 808 809 809 810 810 810 810 811 812 813 814 815 816 817 817 817 817 818 818 819 819 820 821 822 822 823 823 823 824 824 824 824 825 825 826 826 827 828 829 830 830 831 831 831 831 832 832 833 833 833 833 833 833 833 834 834 835 835 835 835 835 836 836 836 836
784 787 796 802 801 800 797 795 795 795 797 798 800 801 802 802 803 804 806 807 808 809 809 809 810 810 810 811 812 813 815 815 816 817 818 818 818 819 819 819 820 820 821 822 823 823 824 824 824 824 825 825 825 825 826 827 827 828 829 830 830 830 830 830 831 832 832 833 833 833 833 833 833 833 834 835 836 836 836 836 835 836 836 837 837
786 786 792 801 802 800 798 796 796 796 798 799 801 801 802 803 804 805 806 807 808 809 809 809 809 810 810 811 812 813 815 815 816 817 818 818 819 819 820 820 820 820 821 822 823 823 824 824 825 825 825 825 825 826 826 827 828 829 829 830 831 831 830 830 831 832 833 833 833 834 834 834 834 834 834 835 836 836 837 836 836 836 837 837 837
788 788 790 798 800 799 797 796 797 798 799 800 801 802 803 804 805 805 806 807 808 809 809 809 809 810 810 811 812 813 815 815 816 817 818 819 819 820 820 820 820 821 821 822 823 824 825 825 825 825 826 826 826 826 827 827 828 829 830 830 831 831 831 831 831 833 833 834 834 834 834 834 834 834 834 835 836 837 837 837 837 837 837 838 838
788 789 789 796 799 798 797 797 798 799 800 801 802 803 804 805 806 806 807 808 808 809 809 810 810 810 811 812 813 814 815 815 816 817 818 819 819 820 820 821 821 821 822 823 823 824 825 825 826 826 826 826 826 827 827 828 828 830 830 831 831 831 831 831 832 833 834 835 835 835 835 835 835 835 835 835 836 837 837 838 838 838 838 838 838
789 788 789 795 797 797 797 798 799 800 801 801 803 804 805 806 806 807 807 808 809 810 810 810 810 811 811 812 813 814 814 815 816 817 818 819 819 820 820 821 822 822 823 823 824 825 825 826 826 827 827 827 827 827 827 828 829 830 831 831 832 832 831 831 832 834 834 835 835 836 835 835 835 835 835 836 836 837 838 838 838 839 839 839 839
791 788 789 795 795 797 797 799 800 800 802 802 804 805 806 806 807 807 808 809 810 810 810 811 811 811 812 812 813 814 815 816 816 817 818 819 819 820 821 821 822 823 824 824 825 825 826 826 827 827 827 827 827 827 828 828 829 830 831 832 832 833 832 832 833 834 835 835 836 836 836 836 836 836 836 836 837 837 837 838 838 839 839 839 840
792 789 790 794 795 797 797 799 800 801 802 803 805 805 807 807 807 808 809 810 810 810 811 811 811 811 812 812 813 814 815 816 817 818 818 819 819 820 821 822 823 823 824 825 826 826 826 827 827 828 828 828 828 827 828 828 829 830 831 832 833 833 833 833 834 834 835 836 836 836 836 836 836 836 836 837 838 838 838 838 838 839 840 840 840
790 789 790 793 795 797 798 800 800 802 803 804 805 806 806 807 807 808 809 810 810 811 810 811 811 811 812 812 813 814 815 816 817 818 818 819 820 820 821 822 823 824 825 825 826 827 827 827 828 828 828 828 828 828 828 828 829 830 831 832 832 833 833 833 834 835 835 836 837 837 837 836 836 837 837 838 838 839 839 839 839 839 839 840 840
788 789 791 793 795 796 798 800 801 803 804 805 806 806 806 807 808 809 809 810 810 811 811 811 812 811 812 812 813 814 815 817 817 818 819 819 820 821 822 823 823 824 825 826 826 827 827 828 828 828 828 828 829 829 828 828 829 830 831 832 833 833 833 833 834 835 836 836 837 837 837 836 837 837 837 838 839 839 840 840 840 839 839 840 840
787 788 791 793 795 796 798 800 802 804 805 805 806 806 806 807 808 809 810 810 810 810 811 812 812 811 812 812 813 814 815 817 818 819 819 820 820 821 822 823 823 824 825 826 827 827 827 827 828 828 828 828 829 829 829 829 829 829 830 831 832 833 833 833 834 835 836 836 837 837 837 837 837 837 838 838 839 839 840 840 840 840 840 840 840
787 788 790 793 795 797 799 800 802 803 804 805 805 806 806 807 808 809 810 810 810 810 811 812 812 812 812 812 813 814 815 816 817 818 819 820 820 821 822 823 823 824 825 826 826 827 827 827 827 828 828 828 829 829 830 829 829 830 830 831 832 833 833 833 834 835 835 836 837 837 837 837 837 837 837 838 839 839 840 841 841 841 840 840 840
787 789 790 793 795 797 798 800 802 803 804 805 806 806 807 808 808 809 809 810 810 810 811 812 812 812 812 813 813 814 815 816 817 818 819 820 820 821 822 822 823 823 824 825 825 826 826 827 827 827 828 828 829 829 830 830 830 830 830 831 832 833 833 833 834 834 835 836 836 836 837 837 837 837 837 838 838 839 840 841 841 841 841 841 841
787 789 791 794 795 797 799 800 801 803 804 805 806 807 807 808 808 809 809 809 810 810 811 811 812 812 812 813 813 814 815 816 817 817 818 819 820 821 821 822 822 822 823 823 824 825 826 826 827 827 828 828 829 829 830 830 830 830 830 831 832 832 833 833 834 834 835 836 836 836 836 837 837 837 837 838 838 839 840 841 841 842 842 841 841
788 790 792 794 796 798 799 800 802 803 805 806 806 807 807 808 808 808 808 809 810 810 811 811 812 812 813 813 814 814 815 816 816 817 818 818 819 820 821 821 821 821 821 821 822 824 825 826 826 827 827 828 828 829 830 830 830 830 830 830 831 832 832 833 833 834 835 835 835 836 836 836 837 837 837 838 838 839 840 841 841 842 842 842 842
788 789 792 794 797 798 799 801 802 804 805 805 806 806 807 807 808 808 808 809 809 810 811 811 812 812 813 813 813 814 815 815 816 816 817 818 819 819 820 820 820 819 819 821 822 823 824 825 825 826 827 827 828 829 829 830 830 830 830 830 831 831 831 832 833 834 834 835 835 835 836 836 836 836 837 837 838 839 840 841 841 842 842 842 842
786 787 792 795 797 798 799 800 802 804 804 805 805 805 806 806 807 807 808 808 809 810 811 811 812 812 812 813 813 814 814 815 815 816 816 817 818 819 819 818 817 818 819 821 822 822 823 824 825 826 827 827 828 828 829 829 829 829 830 830 831 831 831 831 832 833 834 835 835 835 835 836 836 836 836 837 837 838 839 840 841 842 842 842 842
784 783 790 796 798 798 798 799 801 803 803 804 804 805 805 806 806 807 807 808 809 810 810 811 811 811 812 812 812 813 814 814 815 815 816 816 817 818 817 816 816 818 820 821 821 822 822 824 825 826 827 827 827 828 828 828 828 829 829 830 831 830 831 831 832 832 833 834 834 835 835 836 836 836 836 836 837 837 838 839 840 841 841 842 842
781 779 787 796 798 797 797 799 800 802 802 803 804 804 805 805 806 806 807 808 808 809 810 810 811 811 811 811 812 812 813 814 814 815 815 816 816 816 815 816 818 820 821 821 821 822 823 824 825 826 826 827 827 827 827 827 827 828 829 830 830 830 830 831 831 831 832 833 834 835 835 835 836 836 837 836 836 837 838 838 839 840 840 841 841
779 777 783 792 796 795 796 798 800 801 802 802 803 804 805 805 805 806 806 807 807 808 809 810 810 811 811 811 812 812 813 813 814 814 815 815 815 815 816 817 819 820 820 821 821 822 822 823 824 825 826 826 827 827 827 827 827 827 828 829 829 829 830 830 831 831 831 832 833 834 835 835 836 836 837 837 837 837 837 838 838 839 840 840 841
778 778 781 789 793 793 795 797 799 801 801 803 803 804 804 805 805 805 806 806 807 808 809 809 810 810 811 811 812 812 813 813 814 814 814 814 814 815 817 818 818 819 820 820 820 821 822 823 824 825 826 826 827 827 827 826 826 827 827 828 829 829 829 830 830 831 832 832 833 834 834 835 835 836 837 837 837 837 837 838 838 839 839 840 840
778 779 782 787 791 792 794 796 798 800 801 802 803 804 804 804 805 805 806 806 807 808 809 809 810 810 811 811 812 812 812 813 813 814 813 813 814 815 816 817 817 818 819 819 819 820 821 823 823 824 825 826 826 826 827 826 826 827 827 828 829 829 829 829 829 830 831 832 833 833 834 835 835 836 836 836 837 837 837 837 838 838 839 840 840
777 777 781 786 789 791 794 796 797 799 801 802 803 804 804 805 805 805 806 807 808 809 810 810 811 811 811 812 812 812 812 812 813 813 812 813 814 815 815 816 816 817 818 818 819 820 821 822 823 824 825 825 826 826 826 826 826 827 827 828 829 829 829 829 829 829 830 831 832 833 834 834 835 835 836 836 836 837 837 837 838 838 839 839 839
775 776 781 785 788 791 794 795 796 799 800 802 803 804 805 805 806 806 807 808 809 810 811 812 812 812 812 812 813 812 812 812 812 812 812 812 813 814 815 815 815 816 817 818 819 820 821 822 823 824 824 824 825 826 826 826 827 827 827 827 828 829 829 829 829 829 829 829 830 832 833 834 835 835 836 836 836 836 837 837 838 839 839 839 839
775 777 782 785 788 792 794 794 796 798 800 801 803 804 804 805 806 808 809 810 811 811 812 813 813 813 813 813 813 813 812 812 812 812 811 812 812 813 814 814 814 815 816 817 819 820 820 821 822 822 823 824 824 825 826 826 827 827 827 827 828 829 829 829 829 829 829 829 830 831 832 833 834 835 835 836 836 837 837 837 838 839 839 839 839
776 779 783 786 788 792 793 794 796 798 800 802 803 804 805 806 807 808 810 811 812 813 813 814 814 814 814 814 814 814 813 813 812 812 812 812 812 812 812 813 813 814 815 816 818 819 819 820 821 822 823 823 824 825 826 826 827 827 827 827 828 828 829 829 829 829 830 830 830 831 832 833 833 833 834 835 836 837 837 837 838 838 839 839 839
778 780 784 787 788 791 792 793 796 798 800 802 803 804 805 806 807 809 811 812 813 814 814 815 815 815 816 816 815 815 814 814 813 812 812 812 812 812 812 812 813 813 814 816 817 818 819 820 821 822 823 823 824 825 825 826 827 827 827 827 828 828 828 829 829 830 830 830 831 831 831 832 832 832 833 834 835 836 837 837 837 838 838 838 838
779 781 784 786 788 790 791 793 796 798 800 802 803 804 805 806 807 809 811 812 814 815 816 816 817 817 817 817 817 816 816 815 814 813 813 813 813 813 813 813 813 813 814 816 817 818 819 820 821 822 823 823 824 824 825 825 826 826 827 827 827 827 828 829 829 830 830 830 830 831 831 831 832 832 832 833 834 835 836 836 837 837 837 837 837
779 780 783 785 787 789 791 793 796 799 801 802 803 804 805 806 807 809 811 813 815 816 817 818 818 819 819 819 819 818 817 816 815 814 814 814 814 813 813 814 814 814 814 815 816 817 818 819 820 821 822 823 823 824 825 825 825 826 827 827 827 827 827 827 828 829 829 830 830 831 831 831 832 832 832 833 834 834 835 835 836 836 836 836 837
778 780 782 784 787 789 792 794 797 799 801 802 803 804 806 807 807 809 811 813 816 817 818 818 819 819 820 820 820 820 819 817 817 815 815 815 815 814 814 814 814 814 814 815 816 817 818 819 819 820 821 822 823 823 824 825 825 826 827 828 828 827 827 827 827 828 829 829 830 830 831 832 832 833 833 833 834 834 834 834 835 835 835 835 835
778 780 782 784 786 789 792 794 797 799 800 802 803 804 806 808 809 810 812 814 815 817 818 819 819 820 820 821 821 821 820 819 818 817 816 816 815 815 815 815 814 814 814 814 815 816 817 818 819 819 821 822 822 823 824 825 826 826 827 828 829 830 829 828 827 828 828 828 829 830 831 831 832 833 833 833 833 833 833 833 833 834 834 834 834
777 779 781 783 786 789 792 795 797 799 800 801 802 804 805 808 809 811 813 814 816 817 818 819 820 820 821 822 822 822 822 821 819 818 817 816 816 816 815 815 815 815 815 815 815 816 817 817 818 819 820 821 822 823 824 825 826 827 828 829 830 831 831 829 828 828 828 828 828 829 829 830 832 832 832 832 832 832 833 832 833 833 833 833 833
777 779 781 784 786 790 793 795 797 799 800 801 801 803 805 807 808 810 812 814 816 818 818 819 820 820 821 822 823 823 823 823 821 820 819 818 817 817 816 816 816 816 816 816 816 817 817 817 818 819 820 821 822 823 824 825 826 827 828 828 830 831 830 829 830 830 829 828 828 828 829 829 831 831 831 831 831 831 832 832 832 832 832 832 832
777 779 782 784 787 790 793 795 796 798 799 800 801 802 804 807 809 810 812 814 816 818 819 819 820 821 822 822 823 824 824 824 823 822 821 820 819 818 818 818 817 818 818 818 818 818 818 818 819 820 820 821 822 823 824 824 826 827 827 827 827 828 829 829 830 830 830 830 829 829 829 829 830 831 830 830 831 831 831 831 831 831 831 831 831
777 779 781 784 786 789 792 794 796 797 798 799 800 801 804 807 809 812 814 815 816 817 819 820 821 821 822 822 823 824 824 825 824 824 823 822 821 820 820 819 819 819 819 819 819 819 819 819 820 821 821 822 822 823 824 824 826 826 826 826 826 827 829 829 829 829 830 831 830 829 829 829 830 830 830 830 830 830 830 830 830 831 831 831 830
776 778 780 783 785 787 790 793 795 797 798 799 800 801 804 806 810 813 815 817 817 818 819 820 821 822 822 823 823 824 824 825 825 825 824 823 823 822 822 821 821 821 821 820 820 820 820 820 821 821 822 822 823 824 824 825 826 826 826 826 827 828 829 829 829 829 829 831 832 831 830 830 830 830 830 829 829 829 829 830 830 831 831 830 830
776 778 780 782 784 786 789 791 793 795 797 799 800 801 803 806 810 813 815 817 818 818 819 820 821 822 822 823 823 824 825 825 826 825 825 825 824 823 823 823 822 822 822 822 822 822 822 822 822 822 823 823 824 825 825 826 826 826 826 827 828 830 830 829 829 829 829 830 831 832 832 831 831 830 829 829 829 829 829 829 830 830 830 830 830
777 779 780 782 783 785 787 789 791 794 795 798 800 801 803 804 808 812 814 816 817 817 818 819 820 821 822 823 823 824 825 826 826 826 826 825 825 824 824 824 823 823 823 823 823 823 823 823 823 824 824 824 825 825 826 826 827 827 827 828 829 830 831 831 830 830 830 830 831 833 832 831 831 831 830 830 829 828 828 828 829 830 830 830 830
Wind_Speed
24 25 24 21 20 21 20 21 21 24 25 25 26 25 24 22 21 20 19 19 19 18 18 19 20 20 20 20 21 22 22 22 22 22 21 20 20 19 18 17 17 17 17 16 16 17 18 17 17 16 16 15 15 15 15 15 16 16 18 19 19 19 20 21 20 19 19 19 18 18 18 18 18 18 17 17 16 16 16 16 17 16 16 15 15
24 24 23 20 21 20 20 22 23 25 25 25 26 25 24 22 22 21 19 19 19 19 18 18 19 20 19 19 20 20 21 21 21 21 21 20 19 18 17 17 17 17 17 17 17 17 16 16 15 15 15 14 14 15 15 15 15 17 18 18 18 18 19 19 19 19 20 19 18 18 18 18 18 18 17 16 16 16 16 16 15 15 15 15 14
28 25 22 20 21 20 21 23 24 25 25 26 25 25 24 22 22 21 20 20 20 19 18 17 18 19 19 19 19 20 20 20 20 20 20 19 18 18 17 16 17 17 17 18 17 17 16 16 15 14 14 13 14 13 14 14 16 18 18 17 17 18 19 20 20 19 18 17 17 18 18 17 17 17 17 16 16 16 15 15 14 15 14 14 14
30 26 22 21 20 20 22 23 25 25 25 25 25 25 23 23 22 21 20 20 20 19 18 17 16 18 19 18 18 18 19 19 19 19 19 18 17 17 16 16 16 17 17 18 17 17 16 15 15 14 13 13 12 12 13 14 17 19 18 17 18 19 20 21 20 19 18 17 16 17 17 17 17 16 16 16 16 15 15 14 14 14 14 14 14
31 26 22 21 20 21 22 24 25 25 25 25 25 24 23 23 22 21 20 20 20 19 18 17 15 16 18 18 17 17 18 18 18 17 17 16 16 15 14 14 15 17 17 17 17 16 16 14 13 13 12 12 12 12 14 15 17 18 18 18 18 20 20 20 20 19 19 17 16 16 17 17 17 15 15 16 15 15 14 14 14 14 14 14 14
31 27 23 21 21 22 22 24 25 25 25 24 24 23 23 23 22 21 20 20 20 19 18 17 15 15 17 18 17 16 16 17 17 16 16 15 14 13 12 13 14 16 17 16 15 15 14 13 12 13 13 12 12 12 14 15 17 17 17 18 18 19 18 19 20 19 17 16 15 15 15 16 17 15 14 14 14 14 13 13 13 13 13 13 13
31 28 24 23 22 22 23 24 25 25 24 23 23 22 23 23 22 21 20 20 19 19 18 17 16 15 16 17 17 16 16 16 15 15 14 13 13 12 12 13 14 16 16 15 14 13 12 12 12 12 12 11 11 12 14 15 16 15 15 16 17 18 16 17 15 15 13 12 12 12 13 14 15 15 13 13 14 13 13 12 12 12 13 12 13
29 29 25 24 23 22 23 24 24 24 24 23 23 22 23 22 22 21 21 20 19 18 17 17 16 16 16 16 16 16 16 15 15 14 13 12 12 13 13 14 14 15 15 14 14 13 11 11 11 11 9 8 9 12 14 15 15 14 13 13 14 15 15 15 11 10 12 9 9 10 12 12 13 14 12 12 13 12 12 12 12 12 12 12 12
22 25 23 23 21 21 22 23 23 23 23 22 22 22 22 22 22 21 20 20 19 18 17 16 16 16 16 16 16 15 15 15 14 14 13 13 13 14 14 14 14 14 13 13 14 13 11 11 11 9 8 7 8 11 13 14 14 13 11 11 11 11 11 11 8 8 10 7 7 8 10 11 12 13 11 11 12 12 11 12 12 12 11 11 12
17 18 20 21 20 20 21 22 22 23 22 22 22 21 21 21 21 21 20 19 18 17 17 17 16 16 16 15 15 15 14 14 14 14 13 13 13 14 14 13 12 13 11 11 13 12 11 10 9 8 8 8 8 9 12 14 13 12 11 10 9 8 7 6 6 8 11 9 7 8 9 10 11 12 11 10 10 11 12 12 12 11 11 11 11
18 16 18 19 20 20 22 22 22 22 22 22 22 21 21 21 20 20 19 18 17 17 17 17 17 16 16 15 15 15 14 14 14 14 13 12 12 11 11 11 10 11 10 10 11 10 10 8 7 7 7 7 8 9 13 13 13 12 11 10 8 7 6 5 7 11 14 12 10 9 9 10 11 10 11 11 10 11 11 12 11 11 11 11 11
21 18 17 18 19 21 22 22 23 22 22 22 22 21 21 21 20 19 18 17 17 17 17 17 17 17 16 15 15 15 14 14 13 13 12 11 11 10 10 9 9 9 9 9 9 9 8 6 5 5 6 6 7 9 13 13 12 11 11 10 9 8 8 7 9 13 16 14 11 10 10 9 10 9 10 11 11 11 10 11 10 10 11 11 11
22 16 15 17 18 21 22 22 23 22 23 22 22 22 22 22 20 19 19 18 18 17 17 17 17 16 16 15 14 14 14 13 12 12 11 11 10 10 10 9 9 9 8 9 8 7 6 4 4 4 6 6 7 8 12 13 12 11 11 10 10 10 10 9 12 16 17 14 11 10 9 8 9 8 10 12 11 10 10 10 10 10 10 11 10
26 19 15 16 18 20 21 22 22 22 23 23 22 22 23 22 21 20 19 19 18 18 18 17 17 16 15 15 14 14 13 13 12 11 11 10 10 10 9 9 9 8 8 8 8 7 5 4 4 5 7 7 7 8 12 12 11 11 11 10 10 9 10 11 14 16 16 13 11 10 9 7 8 8 9 12 11 10 10 10 10 10 10 10 9
29 26 19 16 18 19 20 21 21 22 23 23 23 22 23 23 22 21 20 19 19 18 18 17 17 16 15 15 15 14 13 12 12 11 10 10 10 10 9 9 9 8 8 7 8 6 5 4 5 6 8 8 8 9 11 11 10 10 10 9 8 9 10 13 15 16 15 12 12 10 8 7 7 8 10 12 11 10 10 10 10 10 10 9 8
29 28 23 19 19 19 19 20 20 21 21 22 22 21 22 23 23 21 20 19 19 18 17 17 16 16 16 15 15 14 12 11 11 10 10 10 10 10 9 9 8 9 8 7 8 7 6 5 6 8 10 9 8 8 9 11 10 9 10 9 7 9 10 15 18 17 15 13 12 10 7 6 6 9 11 12 11 10 10 9 9 10 10 9 8
28 27 25 22 21 21 21 20 20 20 20 21 20 20 21 21 21 20 20 19 18 18 17 16 16 15 15 14 14 13 12 11 10 9 9 10 10 10 9 9 8 8 8 7 8 8 7 6 8 10 11 10 9 7 8 10 10 9 10 8 7 8 8 14 20 17 14 12 11 8 6 5 6 8 10 12 11 11 10 9 9 8 9 9 8
28 26 25 24 22 22 21 21 21 21 20 20 20 19 20 20 21 20 19 19 18 17 16 16 15 14 14 13 12 11 11 10 10 9 9 9 9 9 9 9 8 8 8 8 9 9 7 7 8 9 9 9 8 7 7 9 10 9 9 6 6 8 6 13 19 16 13 11 9 7 6 5 5 6 9 11 12 11 10 10 9 8 9 9 8
27 26 25 24 22 22 21 21 21 21 20 20 19 18 18 19 20 20 19 18 17 16 16 15 14 14 13 12 11 10 10 10 10 9 9 8 9 9 9 9 8 7 8 8 8 8 7 7 8 8 7 7 7 7 7 8 9 9 7 5 6 9 7 12 18 15 13 10 8 6 4 3 3 5 7 11 12 11 10 10 9 9 9 8 7
24 27 26 23 22 22 21 21 20 20 19 19 19 18 17 18 19 19 18 17 16 15 14 14 13 13 12 11 10 10 10 10 10 9 9 8 8 9 9 8 8 7 8 8 8 8 7 7 8 8 6 6 6 6 6 7 8 9 7 5 6 9 8 11 17 14 12 10 8 5 3 3 3 5 8 10 12 11 11 10 9 9 8 8 7
21 24 24 23 22 21 21 20 20 19 19 18 18 18 17 17 18 17 16 15 15 14 14 13 13 12 11 11 10 10 10 10 10 9 9 8 8 8 9 8 8 7 7 7 7 7 6 6 7 7 6 6 5 6 6 7 8 8 7 5 5 7 7 8 15 13 12 10 7 5 3 3 4 6 8 10 12 11 11 10 10 9 8 8 8
22 22 22 23 22 21 21 20 19 18 18 18 18 18 18 17 17 16 15 14 14 14 13 13 12 11 11 10 10 10 10 9 9 10 9 9 8 8 9 8 7 7 7 6 6 6 5 6 7 7 6 6 5 5 5 5 7 7 7 5 4 6 6 4 13 14 11 10 7 4 2 2 5 7 9 11 12 11 10 10 10 9 9 8 8
23 22 22 22 22 21 20 19 19 19 18 18 18 18 17 17 16 16 15 15 14 14 13 12 12 11 11 10 9 9 9 8 8 9 9 8 8 7 7 7 7 6 6 6 5 5 5 6 7 7 6 6 4 3 3 3 6 7 7 5 4 5 6 4 10 13 10 8 6 4 3 3 5 8 10 11 11 11 10 9 9 9 9 9 8
24 24 22 21 21 21 20 19 19 19 19 18 18 17 17 17 16 16 15 15 14 14 14 12 12 11 11 10 9 8 8 7 7 8 7 8 9 8 7 7 6 6 6 6 5 5 6 6 7 8 7 5 4 3 2 3 3 5 5 5 4 5 5 5 8 11 10 8 6 5 4 5 6 8 9 11 12 10 10 9 9 9 9 9 8
24 23 22 21 20 20 20 19 19 18 18 18 18 17 17 17 16 16 16 16 15 15 13 12 12 11 10 9 8 8 7 7 7 8 7 8 9 9 8 7 7 6 6 6 6 6 7 7 7 8 7 6 5 3 3 3 2 3 4 5 4 4 3 4 7 10 11 9 6 5 5 6 6 7 8 11 12 11 10 9 9 9 9 9 8
23 22 21 20 20 20 20 19 18 18 18 17 18 18 18 17 17 16 16 16 15 14 13 12 12 11 10 9 9 8 8 7 7 7 7 8 9 10 9 8 7 6 6 6 6 7 7 7 7 7 7 7 5 5 5 3 2 2 3 5 3 2 2 3 5 9 11 8 6 6 6 6 6 6 8 10 12 11 10 10 9 9 10 10 9
23 22 21 20 19 20 20 19 19 18 17 17 17 18 18 17 16 16 16 16 15 14 12 12 12 12 11 10 8 8 8 7 7 6 7 9 9 10 10 9 8 8 8 8 8 8 7 5 5 6 7 8 7 7 6 4 3 3 3 3 3 2 2 3 4 8 11 8 7 7 6 6 6 6 7 9 11 11 10 10 10 9 9 10 9
22 22 22 20 19 19 20 20 19 18 17 16 17 18 18 17 17 16 16 15 15 14 13 12 12 12 11 10 9 7 7 7 6 6 7 9 10 10 10 9 8 9 10 10 10 9 7 6 5 6 6 6 7 8 7 5 4 4 4 4 4 4 5 6 5 8 11 9 8 8 7 6 6 6 6 8 10 11 11 11 10 9 9 9 9
20 21 21 20 18 19 21 21 20 19 17 16 17 18 18 17 17 16 15 15 15 14 13 12 12 11 11 11 10 8 8 7 7 7 8 10 11 11 10 10 11 12 12 12 11 10 8 7 6 5 5 5 7 7 6 5 6 5 5 5 5 5 7 9 7 9 11 9 9 8 7 6 5 6 6 8 10 10 10 11 11 10 10 9 9
16 17 16 16 18 20 21 21 20 19 18 18 18 18 19 17 16 15 14 14 13 12 12 11 11 10 10 11 10 9 8 7 7 8 10 12 13 12 12 12 14 14 13 12 11 9 7 7 7 6 5 6 6 7 6 6 7 7 7 7 6 4 6 10 9 10 11 9 9 8 8 7 6 6 5 8 10 10 9 9 10 11 11 10 10
17 20 13 10 16 21 21 20 19 19 19 18 17 18 18 17 16 15 14 12 12 12 11 10 10 9 9 10 10 9 8 8 8 8 10 13 14 14 14 16 16 14 13 11 11 10 8 8 7 7 8 8 8 8 7 8 8 9 9 9 9 5 5 11 11 10 11 10 9 9 9 9 7 6 6 7 10 10 9 8 8 9 11 11 11
21 24 17 12 16 21 21 19 19 18 18 18 17 18 17 16 15 14 13 12 11 11 11 10 10 8 9 10 9 8 8 8 8 8 9 13 16 17 17 16 15 13 12 12 12 10 10 10 9 8 9 10 9 8 6 7 9 10 10 9 10 8 6 12 15 12 12 11 10 10 10 9 9 8 6 7 9 9 8 8 8 8 9 11 12
21 24 22 19 20 23 21 20 20 18 17 18 18 17 16 15 13 12 12 11 11 11 10 10 9 8 8 9 9 8 9 9 9 9 9 12 16 18 17 14 13 13 12 11 11 9 9 11 10 9 10 10 9 7 6 7 9 11 11 10 11 8 7 13 17 15 14 13 11 11 11 10 10 9 8 7 8 9 8 8 9 8 6 8 9
19 24 25 23 24 25 22 22 22 19 19 18 17 17 16 13 12 11 10 9 9 9 8 8 9 9 9 9 9 9 10 10 11 10 10 12 15 15 14 13 13 12 12 11 10 9 9 9 9 8 9 10 9 8 7 7 9 10 10 9 8 4 5 12 15 15 16 15 14 14 13 11 11 11 10 9 8 9 8 7 9 9 7 7 7
21 24 24 25 27 26 25 26 24 21 20 18 17 17 15 13 12 10 9 7 7 7 7 7 8 8 9 10 10 9 10 11 12 12 12 12 13 13 12 13 13 12 11 11 10 9 8 7 7 7 7 8 9 9 8 8 8 8 7 8 7 5 6 8 11 12 13 15 16 16 15 14 13 12 11 10 9 9 9 8 8 9 9 8 8
27 26 25 26 28 27 28 27 25 23 20 18 18 18 16 14 12 10 8 6 6 6 6 6 7 8 9 9 8 8 9 10 10 12 12 12 12 12 11 11 11 10 10 11 11 11 9 8 7 6 5 7 8 9 8 8 8 8 7 8 9 7 6 8 9 9 10 13 16 18 17 16 15 14 12 11 11 10 10 9 9 9 9 8 9
31 31 29 30 30 29 30 28 25 23 20 19 19 18 16 14 13 11 8 6 6 6 7 7 7 7 7 6 6 6 7 7 7 9 10 9 10 10 10 9 8 8 10 11 11 11 10 11 9 6 7 8 10 10 9 8 8 7 7 7 8 8 8 9 9 9 8 11 15 18 19 16 15 16 15 14 12 12 11 10 10 9 9 8 8
34 33 32 34 34 33 31 29 26 23 20 20 20 18 15 13 12 11 10 9 9 9 10 9 8 6 4 5 5 5 4 4 5 7 7 8 8 7 7 7 6 7 9 10 10 10 12 14 12 10 10 9 11 11 9 9 8 8 7 7 7 7 8 9 10 10 9 9 9 12 15 15 15 15 16 16 15 14 13 12 11 11 10 9 9
33 32 33 35 34 32 30 28 25 23 22 21 20 18 16 15 13 12 12 13 12 12 12 11 9 7 7 7 7 6 5 5 4 3 4 6 6 4 4 5 5 5 8 9 9 10 13 14 13 13 12 9 10 10 9 9 8 7 6 5 5 6 6 7 9 9 9 9 9 7 7 11 14 16 16 16 17 16 15 14 13 13 12 11 11
31 32 32 32 31 30 29 27 25 24 24 23 21 19 19 19 18 16 15 13 12 13 12 10 9 8 8 7 6 6 5 6 6 5 5 4 3 3 3 3 2 4 8 9 10 12 13 12 10 10 10 9 9 9 9 8 6 4 3 2 3 4 4 3 5 8 9 8 8 7 6 5 8 13 16 17 17 17 16 16 15 15 14 13 12
28 32 31 29 29 28 27 26 25 25 25 25 24 23 23 23 22 21 18 15 14 14 14 13 12 11 9 7 5 5 5 5 5 5 5 7 7 6 5 5 3 4 7 8 10 13 12 10 8 6 7 7 8 9 9 9 7 3 2 3 3 3 5 5 3 4 7 8 6 5 5 4 4 8 13 16 17 16 16 16 16 16 16 15 14
28 31 30 28 27 26 26 26 26 25 24 24 24 24 23 23 23 23 21 18 16 15 15 15 14 12 10 8 6 5 5 5 6 5 6 6 7 7 8 8 6 7 8 8 9 12 12 10 8 7 7 7 7 8 8 7 5 4 2 1 1 2 3 4 4 4 3 5 4 3 3 4 4 5 8 11 12 13 14 14 15 16 17 17 16
29 30 29 28 26 25 26 27 26 24 23 23 24 23 21 21 22 23 23 20 16 14 13 13 12 10 10 8 6 6 7 7 7 7 8 7 6 8 10 10 9 8 7 7 6 8 10 10 9 7 7 6 5 7 8 5 3 4 2 1 1 1 2 3 3 5 4 3 3 1 3 6 5 4 6 7 9 10 11 11 12 12 14 16 17
29 30 29 29 27 26 27 28 26 24 24 25 24 22 21 21 22 23 22 19 17 14 12 12 11 10 9 8 7 7 7 7 7 8 9 8 7 9 11 11 11 9 8 7 6 5 6 8 8 8 7 6 5 6 8 6 5 6 3 1 1 2 1 3 2 3 3 3 3 3 4 4 3 2 3 4 5 7 8 10 10 11 11 12 14
29 29 30 29 28 28 28 27 27 25 25 24 23 22 22 23 24 23 20 19 17 15 15 14 13 12 10 9 9 8 8 6 7 9 9 8 8 9 9 9 10 11 11 10 9 8 6 5 7 8 7 6 6 6 7 7 7 6 2 2 2 1 2 2 0 1 1 1 1 2 3 3 3 3 4 4 5 6 7 10 10 11 11 11 12
28 30 31 29 28 28 26 26 26 25 24 22 22 22 23 25 25 24 22 22 20 17 18 17 14 12 10 9 9 8 8 7 7 9 8 8 9 9 8 9 11 13 13 13 13 12 10 8 6 6 6 6 7 7 6 7 9 7 3 3 2 1 2 1 1 0 1 1 1 2 1 2 2 2 3 4 5 6 7 8 10 10 11 11 12
28 30 31 29 29 28 25 26 26 22 22 22 22 23 24 25 25 24 23 24 22 20 19 17 14 12 10 9 8 7 8 7 7 10 10 10 11 10 10 11 13 13 12 13 15 15 14 12 9 6 4 4 7 8 7 6 7 7 5 4 3 2 1 1 2 1 0 1 2 2 2 2 3 4 5 6 6 7 6 5 6 8 9 10 11
29 30 31 30 30 28 26 26 25 22 23 25 25 25 25 26 25 24 23 23 23 22 21 18 15 14 13 12 10 9 8 7 7 10 12 14 14 13 13 14 14 13 12 13 14 14 14 13 11 9 6 4 4 6 7 4 3 5 7 7 4 1 1 2 2 2 2 1 1 2 2 4 5 6 8 9 9 9 9 7 6 7 8 8 8
30 31 31 31 30 28 28 27 24 24 26 26 27 26 26 27 26 25 24 23 24 24 21 19 18 17 15 14 12 10 8 7 7 9 12 14 14 14 13 13 13 13 13 13 13 13 12 12 11 10 9 8 6 6 7 5 5 5 5 6 3 1 2 4 3 3 3 2 1 2 5 5 4 4 5 8 10 11 11 11 10 10 10 9 8
29 30 31 31 31 30 30 29 26 26 29 27 27 28 27 27 26 26 25 25 25 25 23 22 20 18 17 15 12 10 9 9 9 10 11 12 12 11 11 12 11 11 11 12 12 12 12 12 12 11 11 12 12 11 10 10 9 8 6 6 4 2 3 5 5 4 4 4 3 1 4 5 3 5 9 9 7 8 11 12 12 12 12 12 11
25 28 30 31 32 32 32 31 28 28 30 29 28 28 28 27 26 26 26 27 28 26 25 25 23 21 19 16 14 12 11 10 9 10 11 11 11 10 11 13 13 11 11 11 10 10 10 11 12 12 12 12 13 13 13 13 13 14 12 10 9 7 6 7 7 7 6 5 4 1 4 4 2 5 12 16 17 12 5 6 8 10 11 14 15
Wind_Direction
161 161 163 164 164 160 158 153 142 137 135 136 137 137 137 137 137 133 129 125 122 119 115 113 114 116 114 112 112 116 117 114 111 106 103 100 98 96 95 95 98 99 98 97 94 93 95 98 98 100 103 105 105 107 104 108 115 113 111 109 110 109 108 105 101 101 101 96 93 92 89 88 88 89 86 83 85 84 85 85 85 85 82 79 78
158 160 162 163 162 159 156 147 138 137 135 137 137 138 138 138 138 133 130 125 123 120 116 113 114 117 116 115 114 117 119 117 113 109 107 103 102 100 100 99 102 101 97 97 96 95 97 98 97 99 102 105 105 108 107 109 114 116 114 110 113 114 111 106 103 103 101 99 101 99 92 90 89 88 86 84 85 86 84 82 83 83 82 81 80
155 159 162 161 161 160 152 142 138 136 135 137 137 139 139 139 137 133 130 126 126 121 117 114 115 118 118 118 117 120 121 120 117 114 112 109 107 105 105 104 105 104 98 99 101 99 99 98 97 97 98 102 104 107 107 109 112 114 114 111 115 115 109 104 103 102 98 99 104 102 95 92 91 88 88 88 87 87 86 85 84 83 83 82 79
155 159 161 160 161 157 147 140 138 136 136 137 138 139 139 140 137 133 130 128 128 123 119 116 116 118 119 121 120 123 124 124 121 119 116 113 111 109 109 107 106 104 99 98 101 101 100 101 101 101 98 99 103 107 107 111 114 113 113 115 117 113 108 102 100 98 95 94 96 99 101 99 93 89 88 90 89 88 87 87 87 85 86 84 80
155 157 159 157 157 153 146 141 139 138 137 138 139 139 140 140 137 134 130 131 130 125 121 118 120 119 120 123 124 126 127 127 125 123 120 116 114 110 109 107 105 104 101 99 101 102 102 103 102 103 101 95 94 105 111 113 116 116 116 117 117 115 109 101 96 95 92 87 88 93 99 99 93 90 89 90 90 89 88 87 87 86 86 84 82
154 156 158 154 153 150 147 144 141 139 138 138 138 138 139 139 137 135 132 132 131 127 124 122 124 124 122 124 127 128 129 130 128 127 124 121 116 113 111 110 107 104 104 104 104 104 105 103 101 102 102 95 88 102 115 116 117 118 119 120 120 119 115 106 96 90 90 81 83 87 93 98 94 93 91 92 92 89 89 89 89 88 87 84 84
153 154 157 155 153 151 150 146 142 139 137 137 136 137 138 139 138 136 134 134 133 130 128 127 129 128 125 125 128 130 132 133 133 132 130 127 121 117 114 114 111 108 110 110 109 109 106 103 103 103 103 99 96 104 116 121 121 121 120 121 125 125 123 121 106 91 91 80 79 83 90 99 98 98 95 94 94 91 91 92 91 90 89 85 86
152 155 158 156 153 151 150 145 142 139 136 135 135 137 138 140 140 137 135 135 135 132 130 131 132 132 129 128 129 132 134 134 136 136 134 131 125 121 117 115 113 115 117 114 114 116 113 108 107 106 102 98 107 112 118 126 126 126 125 123 128 131 131 136 136 110 105 95 85 84 88 93 94 99 99 99 98 97 98 94 93 93 91 89 91
151 153 155 152 148 149 148 144 140 137 135 134 134 136 138 140 140 137 135 136 135 133 133 134 135 135 133 131 131 133 136 136 137 136 134 130 126 124 121 119 118 120 122 119 120 126 126 115 108 106 101 93 109 121 124 132 131 129 129 129 131 136 140 144 152 134 124 122 107 92 87 89 94 102 104 106 105 103 105 99 94 95 93 89 91
148 143 148 145 145 150 147 144 139 136 134 133 134 136 138 139 138 135 135 136 135 134 135 135 136 136 136 135 133 134 136 138 137 136 134 131 129 128 129 128 126 128 128 128 131 138 136 122 110 102 96 84 94 124 134 137 135 133 131 133 134 137 143 142 151 156 154 150 132 104 92 93 98 105 105 110 108 101 103 101 97 96 94 90 89
142 141 147 145 147 151 147 143 139 136 135 134 135 136 136 136 135 135 135 135 133 134 135 136 137 135 136 135 135 136 137 138 135 134 133 131 129 129 132 132 131 135 135 136 141 145 142 128 111 93 87 78 85 122 141 142 137 135 134 134 133 127 112 114 141 159 162 153 138 116 102 100 101 109 109 108 106 101 103 103 100 100 101 96 89
140 144 145 146 150 151 148 143 139 136 136 136 135 135 134 134 135 136 135 134 133 134 135 135 135 135 136 136 137 138 139 138 134 132 130 129 126 125 128 129 132 135 136 140 145 145 143 132 108 81 84 85 85 118 143 145 140 137 139 135 123 105 82 103 143 150 152 146 136 120 109 107 107 115 115 110 107 106 107 106 103 101 102 97 91
132 133 139 150 155 153 148 143 140 138 136 134 134 135 135 135 135 136 134 135 135 136 135 135 135 136 138 139 141 140 139 135 133 131 129 129 126 125 125 127 132 135 137 138 142 142 143 135 103 85 91 95 89 116 145 148 144 144 145 135 118 98 78 112 147 145 143 140 132 121 115 116 119 125 121 117 113 109 108 108 108 105 104 100 96
136 139 148 160 159 153 148 143 140 137 135 134 135 136 137 137 137 137 136 137 138 138 137 137 138 140 142 142 141 138 136 133 132 131 130 130 127 127 127 129 133 134 137 134 136 134 135 130 107 105 102 103 99 117 147 153 151 152 149 136 119 93 84 125 152 148 142 138 129 122 121 122 130 136 124 118 117 115 114 113 113 111 109 106 100
147 150 155 165 160 153 147 143 140 137 136 136 138 138 139 139 139 139 139 140 140 140 140 141 143 144 145 143 140 137 134 133 130 130 131 132 130 130 130 133 135 135 138 135 135 130 125 126 118 118 110 105 103 114 144 157 155 154 150 134 116 86 92 136 157 156 148 140 132 124 121 118 129 137 127 122 123 121 118 119 116 114 112 109 105
153 152 155 164 160 151 145 141 139 137 137 138 139 139 139 139 140 140 141 143 142 142 144 146 148 148 148 145 142 138 135 133 132 132 131 130 132 135 138 141 142 143 146 142 134 124 120 126 125 122 112 103 98 105 134 156 157 154 149 129 108 80 92 143 160 162 154 141 134 128 122 120 134 142 136 131 129 126 123 122 118 118 118 114 109
157 155 155 162 161 151 144 139 138 137 137 138 139 140 139 139 141 142 143 145 144 147 150 152 154 152 152 148 143 140 139 139 138 137 132 130 133 138 143 146 148 144 146 145 132 124 123 123 125 125 115 101 95 96 119 152 159 153 147 128 103 75 91 149 160 163 157 144 139 133 121 121 142 151 148 140 134 132 128 125 121 116 114 115 114
159 159 157 162 160 151 144 139 138 138 138 138 140 142 142 143 144 145 146 147 149 153 157 158 158 156 154 150 146 146 148 148 146 143 138 135 135 141 144 147 152 143 140 144 135 127 127 124 127 132 122 105 98 97 108 142 159 156 147 126 94 68 89 154 160 163 160 150 144 133 121 118 138 156 157 149 139 137 134 130 128 122 117 122 124
161 159 157 161 158 150 145 143 144 141 142 141 142 144 145 147 146 148 149 151 155 159 163 162 160 158 157 153 152 155 157 158 156 151 147 144 143 146 146 148 154 150 147 147 139 132 130 127 130 137 132 116 109 107 108 132 154 160 152 124 91 64 81 153 160 165 164 155 147 136 131 132 147 166 167 154 143 143 141 137 134 129 127 130 126
162 158 155 160 156 152 150 149 150 147 148 146 145 147 148 149 149 150 152 155 161 166 168 166 165 163 162 161 163 165 165 166 165 160 156 155 153 151 151 151 154 154 155 153 144 138 134 134 134 137 135 126 123 122 116 124 145 161 159 129 96 68 75 148 161 168 169 158 150 147 147 154 164 175 174 160 150 150 147 144 140 133 131 132 125
160 155 155 160 158 159 157 156 156 153 152 150 149 149 150 152 152 154 156 162 169 171 173 170 171 170 170 170 168 168 169 170 169 167 165 165 163 157 154 154 157 157 160 160 153 146 141 143 144 139 135 132 135 136 129 125 137 156 162 139 103 75 62 144 164 170 171 162 155 154 150 160 171 174 177 165 155 155 152 147 143 140 140 139 132
155 151 157 163 164 164 162 161 160 158 158 156 155 154 155 158 157 161 165 173 177 178 180 177 177 177 177 176 170 169 171 173 173 174 175 178 174 160 155 155 158 160 162 164 164 162 154 156 159 152 144 143 145 146 143 134 139 153 162 149 111 84 51 121 166 172 172 166 160 156 148 165 174 172 177 167 159 160 154 150 149 147 145 143 141
152 153 161 167 169 167 165 166 164 164 165 163 163 161 162 164 166 170 175 182 185 187 187 184 183 182 182 180 176 171 167 170 176 180 183 188 184 164 155 158 160 163 170 171 172 175 168 167 173 170 161 157 157 158 164 151 145 153 161 156 121 95 63 85 161 175 177 171 163 159 161 171 172 173 179 171 163 164 158 156 155 151 150 148 147
156 159 163 168 170 169 168 170 170 170 171 171 171 169 170 173 175 178 185 189 191 194 193 189 188 189 188 185 181 175 166 168 174 183 190 196 192 174 164 166 166 168 175 178 175 175 174 174 182 185 182 178 177 183 197 190 158 149 153 148 117 102 79 89 154 182 184 175 166 161 170 175 173 179 186 177 168 167 166 165 162 158 154 150 149
157 159 162 166 170 171 172 174 175 176 178 178 176 175 177 179 180 185 192 196 197 198 196 195 196 198 194 187 184 180 174 177 180 186 195 201 196 182 176 176 173 173 177 183 183 182 183 180 187 195 198 198 196 194 196 194 161 133 132 127 114 108 87 103 154 191 189 175 167 164 175 182 185 189 188 178 172 171 172 173 171 167 159 154 153
157 160 162 165 173 175 175 178 178 180 183 183 181 180 182 183 184 190 199 202 203 203 201 202 205 206 202 195 188 184 182 185 189 194 202 204 199 189 187 186 179 178 181 187 193 194 194 188 192 202 209 212 205 186 186 191 173 158 133 126 136 131 99 128 159 195 190 176 167 163 174 185 192 191 187 182 177 176 177 180 179 175 170 163 157
159 162 163 164 171 176 177 178 179 180 183 184 185 185 186 188 188 196 207 208 208 210 210 209 210 211 213 210 200 193 190 190 193 202 209 203 198 194 194 193 183 185 189 192 197 197 197 196 202 208 209 213 206 187 187 202 215 225 194 173 214 234 226 182 170 190 186 176 165 161 173 186 194 194 194 188 180 181 182 186 186 183 183 172 164
160 163 164 164 169 175 177 179 179 180 182 183 186 189 190 190 192 202 213 216 216 216 216 217 218 217 220 222 216 208 198 195 194 199 204 195 192 195 197 195 190 195 199 199 199 194 194 203 215 211 199 199 197 193 197 212 222 231 228 220 240 259 234 194 174 187 186 176 165 163 173 183 195 200 204 190 182 188 190 191 191 191 191 181 176
157 163 166 164 169 175 176 180 181 182 185 185 186 190 190 190 195 204 214 220 221 222 222 223 228 228 227 227 223 215 206 202 199 199 198 191 189 192 193 195 199 202 202 203 201 197 198 207 221 222 202 190 190 196 208 224 226 224 222 226 245 257 223 193 174 186 189 177 167 168 174 182 192 198 201 187 186 195 195 196 197 197 197 188 186
148 155 164 168 175 177 179 183 183 183 185 185 187 188 189 192 198 205 214 220 224 227 227 227 234 236 227 220 217 210 207 208 206 206 202 195 191 191 195 202 207 206 202 205 207 204 205 213 226 231 222 215 212 216 229 237 224 218 221 226 236 247 216 199 186 188 192 183 176 174 177 186 187 183 184 180 187 197 199 207 206 202 202 192 191
146 148 160 181 183 179 182 185 180 180 181 183 185 186 189 194 200 205 213 220 222 226 228 228 231 228 214 211 214 206 201 206 206 207 206 198 193 196 203 209 212 209 207 210 212 216 221 226 232 237 236 232 232 235 246 244 220 214 225 223 220 228 226 208 197 196 197 191 187 185 184 190 189 178 173 173 185 196 201 213 216 209 205 198 197
148 147 157 188 193 182 183 184 177 176 177 179 181 182 187 193 200 204 209 215 217 221 224 223 220 212 206 206 208 202 197 201 199 202 205 199 199 206 210 211 211 209 212 215 215 223 228 228 232 237 236 233 237 245 259 256 227 220 226 216 211 226 235 208 199 200 202 200 200 198 192 191 192 186 178 173 181 194 203 209 215 217 209 202 205
149 146 158 186 195 186 184 182 175 174 176 178 178 180 185 189 194 195 200 208 213 217 216 215 209 201 203 201 200 201 201 202 199 200 201 202 207 214 216 214 211 208 213 220 220 225 225 220 222 228 232 233 238 247 260 251 224 218 222 217 219 236 234 208 202 200 202 205 207 208 202 197 195 192 190 183 181 190 199 201 206 217 217 207 208
159 156 171 192 193 186 186 182 175 176 178 179 178 178 180 180 182 185 194 203 212 217 208 205 201 195 199 200 201 205 206 205 203 205 206 208 214 218 219 218 215 213 214 219 222 224 218 209 210 221 230 232 234 238 238 218 201 205 212 211 212 212 201 205 208 207 208 209 209 211 208 203 200 197 195 190 189 192 196 197 201 208 212 214 212
168 167 179 190 187 184 186 180 175 180 182 183 183 175 171 169 171 178 186 197 209 206 192 194 195 193 196 194 198 208 212 208 203 212 218 216 217 218 221 222 224 224 217 216 220 219 211 198 196 208 226 232 229 225 214 188 174 183 189 185 175 152 144 170 193 206 215 216 215 215 211 208 205 203 202 196 195 197 199 200 201 205 206 213 214
164 163 167 174 179 183 183 178 175 180 179 178 178 169 163 159 157 161 165 178 193 185 175 180 181 182 189 188 194 209 219 214 206 216 225 223 218 215 218 221 225 225 215 210 208 208 207 197 190 197 216 216 204 194 186 172 162 157 158 167 174 175 142 129 152 179 202 215 220 219 215 213 208 207 210 205 202 203 203 204 204 209 212 215 213
154 151 153 159 165 170 172 170 169 170 165 161 160 157 155 150 146 146 144 145 153 154 149 153 160 170 185 190 193 206 221 224 218 219 225 227 220 213 211 211 218 224 219 213 207 206 204 196 191 197 210 202 186 180 173 166 161 149 140 145 160 176 160 128 124 138 164 193 212 220 220 222 218 215 216 214 211 210 208 208 208 212 218 219 215
147 147 149 152 154 156 158 158 159 159 156 153 147 146 146 141 141 142 140 135 130 131 128 131 141 145 143 137 147 169 186 195 212 223 227 225 218 212 207 205 218 228 222 218 212 206 202 199 196 198 206 204 194 190 177 162 154 147 137 133 141 155 151 132 121 121 126 143 176 206 217 224 226 225 226 223 219 217 214 212 211 216 222 225 223
147 148 150 151 151 152 152 151 152 153 153 150 143 143 142 139 143 145 143 137 130 131 126 126 134 125 110 106 116 130 131 127 135 173 198 205 208 207 200 201 218 218 207 201 188 189 198 199 199 200 201 198 195 193 185 167 152 146 140 137 149 156 150 134 125 126 122 119 129 150 187 212 221 226 229 229 225 223 221 218 216 218 222 227 230
150 150 151 152 152 152 151 149 151 152 150 148 145 144 142 139 141 143 146 142 137 141 139 137 138 128 114 105 105 110 114 117 114 109 119 128 131 138 142 159 190 198 196 191 177 184 192 187 191 199 196 189 188 192 195 192 183 169 168 186 198 193 197 174 131 127 127 121 122 129 138 172 208 219 224 229 229 227 227 227 225 225 224 225 230
152 151 152 153 154 155 153 151 153 155 154 153 152 149 145 143 143 143 145 141 136 136 136 134 131 126 118 113 110 106 108 112 113 113 112 101 94 102 107 112 111 131 169 181 181 189 191 185 185 184 187 190 183 185 197 207 216 220 208 216 217 212 219 215 186 146 137 131 122 125 133 140 175 204 216 225 228 229 232 233 233 233 233 230 232
154 154 155 156 157 158 157 156 157 160 161 159 158 156 151 146 145 145 145 141 137 135 131 128 128 127 125 122 122 125 124 110 105 123 130 107 92 99 102 102 102 109 139 163 180 190 191 193 189 175 180 190 181 178 185 198 212 210 201 222 259 259 248 233 223 219 181 155 137 106 123 148 161 170 188 206 216 222 227 229 231 233 237 238 236
156 157 158 159 159 160 160 160 162 165 165 161 159 158 155 151 147 145 145 140 138 139 135 132 133 135 133 132 135 133 123 108 100 115 131 122 100 104 102 96 95 101 124 147 162 178 184 192 194 183 179 180 175 173 175 179 177 173 156 79 310 316 309 292 249 234 230 206 213 216 148 149 151 154 163 181 196 204 209 212 217 224 231 236 236
158 159 159 161 161 163 164 164 167 170 167 163 158 157 157 156 149 144 144 139 135 136 134 134 135 133 129 131 141 142 127 109 100 108 123 125 108 105 102 93 93 96 104 111 106 122 165 189 201 202 190 177 176 176 181 181 166 167 148 65 40 42 328 287 282 249 245 233 233 225 192 168 148 169 191 206 218 209 206 207 208 214 222 229 233
162 161 162 164 165 168 169 169 172 172 169 165 163 163 159 154 148 141 139 134 131 133 132 132 133 134 130 123 125 134 135 118 97 97 109 117 111 106 103 98 98 99 99 97 90 86 101 146 186 203 206 197 189 180 188 193 182 179 145 95 70 37 242 239 49 318 270 238 226 195 195 198 193 216 230 247 256 237 224 221 217 218 223 227 232
165 165 167 169 169 171 172 174 175 176 177 174 172 172 164 157 152 146 141 136 134 138 138 136 137 139 140 132 124 125 131 122 96 87 95 116 124 115 107 109 107 105 104 99 92 86 87 102 141 183 205 206 195 180 184 197 194 189 142 101 80 334 251 178 113 6 344 320 260 214 213 221 206 235 250 253 259 246 236 234 231 232 235 239 244
168 168 170 173 173 174 175 177 178 180 184 182 178 173 166 163 162 158 152 145 143 144 144 142 142 143 144 140 133 130 132 124 99 86 89 110 126 120 112 118 118 113 109 103 96 91 89 92 105 125 151 185 191 179 176 196 203 199 193 164 116 36 356 136 146 154 12 304 281 230 241 267 249 247 248 247 255 252 245 242 238 240 247 249 252
169 171 173 175 177 178 177 180 183 181 178 175 175 173 169 167 166 162 157 153 150 147 147 145 142 139 136 131 125 127 135 130 112 97 93 101 111 110 108 114 118 115 110 106 101 95 93 93 96 102 106 126 175 173 168 180 189 189 209 203 171 69 24 73 83 113 127 155 320 319 313 300 271 261 260 254 252 248 242 244 249 251 253 248 245
173 174 176 177 180 180 179 182 185 179 172 170 171 172 171 168 166 163 158 157 154 150 149 146 144 139 134 132 131 130 134 133 127 117 105 102 104 104 103 107 112 112 109 106 103 100 97 95 95 99 100 103 113 124 131 128 114 129 186 204 193 139 94 82 71 86 98 99 36 336 350 351 334 335 317 275 263 261 256 256 260 262 261 251 246
175 176 178 180 181 181 181 184 188 181 174 172 171 170 169 168 167 163 159 159 157 152 150 149 150 149 142 142 143 137 132 127 125 126 120 111 107 104 98 98 105 114 116 114 111 107 102 98 97 100 102 102 105 104 104 104 98 101 135 167 176 155 89 68 61 76 87 86 84 36 350 358 355 14 24 19 350 308 282 275 273 271 269 259 253
175 177 179 181 182 182 183 184 188 184 178 176 175 172 170 169 168 165 162 163 161 156 154 154 156 155 151 149 148 144 138 133 127 126 127 122 117 112 103 99 100 106 111 114 119 119 113 109 105 104 105 106 107 104 99 99 95 90 97 114 127 123 99 76 65 70 79 78 81 55 344 360 330 355 31 46 45 36 6 321 302 291 285 273 265